Regional Weather Roundup
Issued by NWS Green Bay, WI

Home | Current Version | Previous Version | Graphics & Text | Print | Product List | Glossary Off
Versions: 1 2 3 4 5 6 7 8 9 10 11 12 13 14 15 16 17 18 19 20 21 22 23 24 25 26 27 28 29 30 31 32 33 34 35 36 37 38 39 40 41 42 43 44 45 46 47 48 49 50

000
ASUS43 KGRB 200611
RWRGRB

NORTH-CENTRAL AND NORTHEAST WISCONSIN REGIONAL WEATHER ROUNDUP
NATIONAL WEATHER SERVICE GREEN BAY WI
100 AM CDT FRI APR 20 2018

WIZ005-009-010>012-018-019-200700-
NORTH CENTRAL WISCONSIN

CITY           SKY/WX    TMP DP  RH WIND       PRES   REMARKS
IRONWOOD       FAIR      25  18  74 CALM      30.40S
MANITOWISH WTR FAIR      22  14  71 CALM      30.40S
ARBOR VITAE    FAIR      27  15  61 CALM      30.40S
EAGLE RIVER    FAIR      22  14  71 CALM      30.40R
LAND O LAKES   FAIR      19  13  78 CALM      30.41S
RHINELANDER    FAIR      27  14  58 W5        30.40S
PHILLIPS       FAIR      24  20  87 CALM      30.41S
ANTIGO         FAIR      22  16  75 CALM      30.41S
TOMAHAWK       FAIR      20  14  78 CALM      30.42S
MERRILL          N/A     26  17  67 CALM      30.43S
$$

WIZ013-073-200700-
NORTHEAST WISCONSIN

CITY           SKY/WX    TMP DP  RH WIND       PRES   REMARKS
IRON MOUNTAIN  FAIR      25  15  66 CALM      30.39R
MARINETTE      NOT AVBL
OCONTO         FAIR      24  17  75 CALM      30.42S
$$

WIZ017-030-035>037-045-200700-
CENTRAL WISCONSIN

CITY           SKY/WX    TMP DP  RH WIND       PRES   REMARKS
MEDFORD        FAIR      31  18  58 CALM      30.42R
WAUSAU         FAIR      31  22  69 NW7       30.41R
MOSINEE        FAIR      34  21  60 NW5       30.43S
MARSHFIELD     FAIR      31  17  56 NW7       30.41R
WISC RAPIDS    FAIR      28  18  66 CALM      30.44R
STEVENS POINT  FAIR      25  20  82 CALM      30.43S
WAUPACA        FAIR      38  21  50 NW5       30.42S
SHAWANO        FAIR      29  24  80 CALM      30.42R
CLINTONVILLE   FAIR      31  20  63 CALM      30.42R
WAUTOMA        FAIR      34  18  52 W6        30.44R
$$

WIZ038-039-048-051-200700-
FOX VALLEY

CITY           SKY/WX    TMP DP  RH WIND       PRES   REMARKS
NWS GREEN BAY  FAIR      28  22  78 CALM      30.42R
APPLETON       FAIR      34  19  55 NW8       30.39S
OSHKOSH        FAIR      35  20  54 W3        30.41R
FOND DU LAC    FAIR      30  22  72 S5        30.42R
$$

WIZ022-050-052-200700-
EAST CENTRAL WISCONSIN

CITY           SKY/WX    TMP DP  RH WIND       PRES   REMARKS
EPHRAIM        FAIR      37  13  36 W5        30.40S
WASHINGTON ISL FAIR      28  21  76 CALM      30.41R
STURGEON BAY   FAIR      30  18  60 CALM      30.42S
MANITOWOC      FAIR      29  24  82 CALM      30.43R
SHEBOYGAN      FAIR      39  23  52 NW7       30.41R
$$

LMZ563-521-522-541>543-200700-
LAKESHORE

STATION/POSITION TIME  TEMP    WIND        PRES    VSBY  WAVE
                       AIR SEA DIR/SP/G                  HT/PER
                 (UTC) (F)     (DEG/KT/KT) (MB)    (MI)  (FT/S)
SHEBOYGAN LKSHOR 0600   39      20/  3/  5 1030.5R
KEWAUNEE LKSHORE 0542          300/  3/  3 1029.1R
NORTHPORT PIER   0600   31                 1029.5
MENOMINEE LKSHOR 0542          260/  3/  5 1029.4R
$$



USA.gov is the U.S. government's official web portal to all federal, state and local government web resources and services.